Flag for Germany Weather past 2 weeks in Oranienburg, Brandenburg, Germany

Now
33 °F

Overcast.


Feels Like: 27 °F
Forecast: 22 / 32 °F
Wind: 6 mph from Southwest

Location: Berlin-Tegel

Current Time: Feb 2, 2015 at 1:57:51 AM

Latest Report: Feb 2, 2015 at 1:00 AM


Visibility: 16 mi

Pressure: 29.29 "Hg

Humidity: 90%

Dew point: 30 °F

Location of OranienburgLocation

Historic Weather in Oranienburg — Graph

°F

Oranienburg temperature yesterday

Maximum temperature yesterday: 38 °F (at 3:00 PM)
Minimum temperature yesterday: 32 °F (at 11:00 PM)
Average temperature yesterday: 34 °F

Past Weeks' High & Low Weather Summary

 TemperatureHumidityPressure
High42 °F (Jan 28, 3:00 PM)100% (Jan 18, 6:00 AM)30.32 "Hg (Jan 18, 6:00 AM)
Low27 °F (Jan 19, 8:00 AM)64% (Jan 29, 1:00 PM)28.73 "Hg (Jan 30, 5:00 AM)
Average34 °F91%29.75 "Hg
* Reported Jan 18 1:00 AM — Feb 2 1:00 AM, Oranienburg, Weather by CustomWeather, © 2014

Note: Actual official high and low records may vary slightly from our data, if they occured in-between our weather recording intervals... More about our weather records

Advertising

Oranienburg weather history for previous 24 hours

 ConditionsComfort  
Time TempWeatherWind HumidityBarometerVisibility
1:00 AM
Feb 2
33 °FOvercast.6 mph90%29.29 "Hg16 mi
12:00 AM31 °FPassing clouds.5 mph89%29.29 "Hg14 mi
11:00 PM
Feb 1
32 °FOvercast.5 mph90%29.26 "Hg14 mi
10:00 PM32 °FOvercast.5 mph91%29.26 "Hg14 mi
9:00 PM33 °FPassing clouds.5 mph90%29.26 "Hg14 mi
8:00 PM34 °FOvercast.3 mph88%29.26 "Hg12 mi
7:00 PM34 °FOvercast.5 mph87%29.26 "Hg19 mi
6:00 PM35 °FPassing clouds.5 mph85%29.23 "Hg19 mi
5:00 PM36 °FOvercast.5 mph84%29.23 "Hg19 mi
4:00 PM37 °FPartly sunny.6 mph80%29.23 "Hg16 mi
3:00 PM38 °FOvercast.7 mph81%29.21 "Hg16 mi
2:00 PM37 °FOvercast.6 mph85%29.21 "Hg12 mi
1:00 PM36 °FOvercast.7 mph86%29.21 "Hg12 mi
12:00 PM35 °FOvercast.7 mph87%29.21 "Hg12 mi
11:00 AM34 °FOvercast.7 mph91%29.18 "Hg9 mi
10:00 AM33 °FLight snow. Low clouds.5 mph95%29.18 "Hg4 mi
9:00 AM33 °FLow clouds.5 mph97%29.15 "Hg4 mi
8:00 AM33 °FLight snow. Low clouds.3 mph99%29.15 "Hg3 mi
7:00 AM33 °FLight snow. Low clouds.5 mph97%29.12 "Hg4 mi
6:00 AM33 °FLight snow. Low clouds.5 mph95%29.12 "Hg5 mi
5:00 AM33 °FLight snow. Low clouds.5 mph98%29.09 "Hg4 mi
4:00 AM33 °FOvercast.7 mph93%29.09 "Hg12 mi
3:00 AM34 °FOvercast.7 mph91%29.09 "Hg12 mi
2:00 AM34 °FOvercast.6 mph93%29.06 "Hg9 mi
1:00 AM34 °FLight snow. Low clouds.6 mph97%29.06 "Hg5 mi
Weather by CustomWeather, © 2014

See weather overviewHow to use our weather pages